Location: Unnamed
(48.8836°N, 1.0859°W)
Time: 15:00:39
(UTC+02:00)

ISS - Pass Details

Date: 30 September 2021
Orbit: 417 x 423 km, 51.6° (Epoch: 16 October)

Event Time Altitude Azimuth Distance (km) Brightness Sun altitude
Rises 22:35:32 0° 287° (WNW) 2,367 1.2 -27.8°
Reaches altitude 10° 22:37:52 10° 273° (W) 1,501 -0.2 -28.1°
Enters shadow 22:38:41 15° 263° (W) 1,249 -0.8 -28.2°
